Weather History for KHDE - March, 2013

Change the Weather History Date:

Monday, March 25, 2013

  Actual Average Record
Temperature  
Mean Temperature 24 °F -  
Max Temperature 31 °F 55 °F 85 °F (1956)
Min Temperature 18 °F 28 °F -5 °F (1965)
Degree Days  
Heating Degree Days 40    
Moisture  
Dew Point 15 °F    
Average Humidity 68    
Maximum Humidity 85    
Minimum Humidity 47    
Precipitation  
Precipitation 0.00 in - - ()
Sea Level Pressure  
Sea Level Pressure 30.27 in    
Wind  
Wind Speed 12 mph (NNW)    
Max Wind Speed 21 mph    
Max Gust Speed 29 mph    
Visibility 10 miles    
Events Snow    
Averages and records for this station are not official NWS values.
T = Trace of Precipitation, MM = Missing Value Source: NWS Daily Summary

Daily Weather History Graph

Daily Weather History Graph

Search for Another Location

Airport or City:

Trip Planner

Search our weather history database for the weather conditions in past years. The results will help you decide how hot, cold, wet, or windy it might be!

Date:

Astronomy

Mar. 25, 2013 Rise Set
Actual Time 7:32 AM CDT 7:54 PM CDT
Civil Twilight 7:04 AM CDT 8:22 PM CDT
Nautical Twilight 6:32 AM CDT 8:54 PM CDT
Astronomical Twilight 5:59 AM CDT 9:27 PM CDT
Moon 6:28 PM CDT (3/25) 6:16 AM CDT (3/25)
Length of Visible Light 13h 17m
Length of Day
12h 22m
Waxing Gibbous, 96% of the Moon is Illuminated
Mar 25
Waxing Gibbous
Mar 27
Full
Apr 2
Last Quarter
Apr 10
New
Apr 18
First Quarter

Hourly Weather History & Observations

Time (CDT) Temp. Windchill Dew Point Humidity Pressure Visibility Wind Dir Wind Speed Gust Speed Precip Events Conditions
12:15 AM 22.1 °F 11.3 °F 16.7 °F 80% 30.18 in 10.0 mi NW 10.4 mph - N/A   Clear
12:35 AM 22.1 °F 10.6 °F 16.3 °F 79% 30.19 in 10.0 mi NW 11.5 mph 17.3 mph N/A   Clear
12:55 AM 21.9 °F 10.4 °F 16.2 °F 78% 30.19 in 10.0 mi NW 11.5 mph - N/A   Clear
1:15 AM 20.8 °F 9.0 °F 15.6 °F 80% 30.20 in 10.0 mi NW 11.5 mph - N/A   Clear
1:35 AM 20.8 °F 8.4 °F 15.6 °F 80% 30.20 in 10.0 mi NW 12.7 mph - N/A   Clear
1:55 AM 20.8 °F 9.0 °F 15.8 °F 81% 30.20 in 10.0 mi NW 11.5 mph - N/A   Clear
2:15 AM 21.2 °F 8.3 °F 15.8 °F 80% 30.20 in 10.0 mi NW 13.8 mph - N/A   Clear
2:35 AM 21.6 °F 8.2 °F 15.8 °F 78% 30.21 in 10.0 mi NW 15.0 mph - N/A   Clear
2:55 AM 21.2 °F 8.3 °F 15.6 °F 79% 30.20 in 10.0 mi NW 13.8 mph 19.6 mph N/A   Clear
3:15 AM 21.2 °F 9.5 °F 15.8 °F 80% 30.21 in 10.0 mi NW 11.5 mph 19.6 mph N/A   Clear
3:55 AM 21.0 °F 9.3 °F 15.6 °F 80% 30.21 in 10.0 mi NW 11.5 mph - N/A   Clear
4:15 AM 21.0 °F 8.6 °F 15.8 °F 80% 30.20 in 10.0 mi NW 12.7 mph 17.3 mph N/A   Clear
4:35 AM 20.8 °F 9.0 °F 15.6 °F 80% 30.21 in 10.0 mi NW 11.5 mph 18.4 mph N/A   Clear
4:55 AM 19.6 °F 7.4 °F 14.9 °F 82% 30.21 in 10.0 mi NW 11.5 mph - N/A   Clear
5:15 AM 19.4 °F 7.2 °F 15.6 °F 85% 30.22 in 10.0 mi NW 11.5 mph - N/A   Clear
5:35 AM 20.1 °F 7.5 °F 16.3 °F 85% 30.22 in 10.0 mi NW 12.7 mph - N/A Snow Light Snow
5:55 AM 21.2 °F 6.8 °F 16.9 °F 83% 30.23 in 7.0 mi NW 17.3 mph 21.9 mph N/A Snow Light Snow
6:15 AM 20.8 °F 7.3 °F 15.8 °F 81% 30.23 in 10.0 mi NW 15.0 mph - N/A Snow Light Snow
6:35 AM 19.9 °F 6.2 °F 14.9 °F 81% 30.23 in 10.0 mi NW 15.0 mph 21.9 mph N/A   Clear
6:55 AM 19.4 °F 5.0 °F 14.4 °F 81% 30.24 in 10.0 mi NW 16.1 mph - N/A   Clear
7:15 AM 18.5 °F 5.5 °F 13.8 °F 82% 30.24 in 10.0 mi NW 12.7 mph - N/A   Clear
7:35 AM 18.5 °F 5.5 °F 13.8 °F 82% 30.25 in 10.0 mi NW 12.7 mph - N/A   Clear
7:55 AM 18.5 °F 6.1 °F 13.8 °F 82% 30.25 in 10.0 mi NW 11.5 mph - N/A   Clear
8:15 AM 19.4 °F 6.6 °F 14.5 °F 81% 30.26 in 10.0 mi NW 12.7 mph - N/A   Mostly Cloudy
8:35 AM 20.1 °F 6.9 °F 14.5 °F 79% 30.27 in 10.0 mi NW 13.8 mph 18.4 mph N/A   Scattered Clouds
8:55 AM 21.4 °F 8.5 °F 15.6 °F 78% 30.27 in 10.0 mi NW 13.8 mph 18.4 mph N/A   Clear
9:15 AM 23.0 °F 10.6 °F 15.8 °F 74% 30.28 in 10.0 mi NNW 13.8 mph 21.9 mph N/A   Clear
9:35 AM 23.9 °F 10.8 °F 14.9 °F 69% 30.28 in 10.0 mi NNW 16.1 mph 24.2 mph N/A   Clear
9:55 AM 24.3 °F 10.8 °F 15.4 °F 69% 30.28 in 10.0 mi NNW 17.3 mph 24.2 mph N/A   Clear
10:15 AM 24.8 °F 11.1 °F 14.2 °F 64% 30.29 in 10.0 mi NNW 18.4 mph 26.5 mph N/A   Scattered Clouds
10:35 AM 25.2 °F 11.2 °F 12.9 °F 60% 30.29 in 10.0 mi North 19.6 mph 28.8 mph N/A   Scattered Clouds
10:55 AM 25.3 °F 11.0 °F 12.7 °F 59% 30.30 in 10.0 mi NNW 20.7 mph 26.5 mph N/A   Mostly Cloudy
11:15 AM 25.3 °F 11.8 °F 13.5 °F 61% 30.30 in 10.0 mi NNW 18.4 mph 24.2 mph N/A   Overcast
11:35 AM 25.7 °F 12.3 °F 13.1 °F 59% 30.30 in 10.0 mi North 18.4 mph 24.2 mph N/A   Overcast
11:55 AM 26.1 °F 13.6 °F 12.9 °F 58% 30.30 in 10.0 mi North 16.1 mph 23.0 mph N/A   Overcast
12:15 PM 25.7 °F 15.1 °F 14.0 °F 61% 30.30 in 10.0 mi NNW 11.5 mph 23.0 mph N/A   Overcast
12:35 PM 26.2 °F 14.7 °F 14.0 °F 60% 30.30 in 10.0 mi NNW 13.8 mph 23.0 mph N/A Snow Light Snow
12:55 PM 27.1 °F 15.9 °F 13.8 °F 57% 30.30 in 10.0 mi NNW 13.8 mph 20.7 mph N/A   Overcast
1:15 PM 28.2 °F 16.3 °F 13.3 °F 54% 30.30 in 10.0 mi NNW 16.1 mph 23.0 mph N/A   Mostly Cloudy
1:35 PM 28.9 °F 17.7 °F 13.3 °F 52% 30.30 in 10.0 mi NW 15.0 mph 20.7 mph N/A   Mostly Cloudy
1:55 PM 29.1 °F 17.5 °F 13.6 °F 52% 30.30 in 10.0 mi NNW 16.1 mph 24.2 mph N/A   Mostly Cloudy
2:15 PM 30.2 °F 18.9 °F 13.5 °F 50% 30.30 in 10.0 mi North 16.1 mph 20.7 mph N/A   Mostly Cloudy
2:35 PM 30.2 °F 19.8 °F 13.5 °F 50% 30.29 in 10.0 mi NNW 13.8 mph 19.6 mph N/A   Mostly Cloudy
2:55 PM 30.2 °F 18.9 °F 12.9 °F 49% 30.29 in 10.0 mi NNW 16.1 mph 21.9 mph N/A   Mostly Cloudy
3:15 PM 31.1 °F 20.5 °F 13.3 °F 48% 30.28 in 10.0 mi NNW 15.0 mph 18.4 mph N/A   Mostly Cloudy
3:35 PM 30.4 °F 19.5 °F 12.4 °F 47% 30.28 in 10.0 mi NNW 15.0 mph 21.9 mph N/A   Mostly Cloudy
3:55 PM 31.1 °F 20.9 °F 13.5 °F 48% 30.28 in 10.0 mi North 13.8 mph 18.4 mph N/A   Mostly Cloudy
4:15 PM 31.1 °F 20.5 °F 14.0 °F 49% 30.28 in 10.0 mi NNW 15.0 mph 18.4 mph N/A   Mostly Cloudy
4:35 PM 31.1 °F 20.5 °F 14.0 °F 49% 30.28 in 10.0 mi NNW 15.0 mph 18.4 mph N/A   Scattered Clouds
4:55 PM 30.7 °F 20.9 °F 14.0 °F 50% 30.28 in 10.0 mi North 12.7 mph 18.4 mph N/A   Scattered Clouds
5:15 PM 31.1 °F 23.1 °F 14.9 °F 51% 30.28 in 10.0 mi North 9.2 mph 18.4 mph N/A   Clear
5:35 PM 31.3 °F 22.1 °F 14.5 °F 50% 30.28 in 10.0 mi North 11.5 mph - N/A   Scattered Clouds
5:55 PM 31.1 °F 22.4 °F 14.0 °F 49% 30.28 in 10.0 mi North 10.4 mph 17.3 mph N/A   Clear
6:15 PM 30.7 °F 21.4 °F 13.8 °F 50% 30.28 in 10.0 mi North 11.5 mph - N/A   Clear
6:35 PM 30.6 °F 20.7 °F 13.8 °F 50% 30.28 in 10.0 mi North 12.7 mph - N/A   Clear
6:55 PM 30.2 °F 21.3 °F 13.3 °F 49% 30.29 in 10.0 mi North 10.4 mph - N/A   Clear
7:15 PM 29.7 °F 21.3 °F 14.2 °F 53% 30.29 in 10.0 mi North 9.2 mph - N/A   Clear
7:35 PM 28.4 °F 19.1 °F 15.1 °F 57% 30.29 in 10.0 mi North 10.4 mph - N/A   Clear
7:55 PM 26.6 °F 17.5 °F 15.1 °F 62% 30.30 in 10.0 mi NNE 9.2 mph - N/A   Clear
8:15 PM 25.5 °F 16.2 °F 14.9 °F 64% 30.30 in 10.0 mi NE 9.2 mph - N/A   Clear
8:35 PM 24.1 °F 15.2 °F 15.4 °F 70% 30.30 in 10.0 mi NE 8.1 mph - N/A   Clear
8:55 PM 22.3 °F 14.9 °F 15.4 °F 75% 30.30 in 10.0 mi NE 5.8 mph - N/A   Clear
9:15 PM 22.1 °F 12.8 °F 14.9 °F 74% 30.31 in 10.0 mi NNE 8.1 mph - N/A   Clear
9:35 PM 21.0 °F 14.6 °F 14.9 °F 77% 30.32 in 10.0 mi NE 4.6 mph - N/A   Clear
9:55 PM 21.0 °F 16.2 °F 14.7 °F 77% 30.32 in 10.0 mi NNE 3.5 mph - N/A   Clear
10:15 PM 20.7 °F 15.8 °F 14.4 °F 77% 30.32 in 10.0 mi North 3.5 mph - N/A   Clear
10:35 PM 20.3 °F - 14.2 °F 77% 30.32 in 10.0 mi Calm Calm - N/A   Clear
10:55 PM 19.9 °F - 14.0 °F 78% 30.32 in 10.0 mi Calm Calm - N/A   Clear
11:15 PM 18.7 °F - 14.2 °F 83% 30.33 in 10.0 mi Calm Calm - N/A   Clear
11:35 PM 18.5 °F - 13.6 °F 81% 30.33 in 10.0 mi Calm Calm - N/A   Clear
11:55 PM 18.3 °F 13.1 °F 14.0 °F 83% 30.33 in 10.0 mi North 3.5 mph - N/A   Clear